Grand Marais, MN

7:41 PM CDT on July 21, 2017 (GMT -0500)
Grand Marais

Weather History for KGNA - October, 2013

Change the Weather History Date:

Monday, October 21, 2013

  Actual Average (KCKC) Record (KCKC)
Temperature  
Mean Temperature 38 °F -  
Max Temperature 43 °F 43 °F 57 °F (1999)
Min Temperature 34 °F 30 °F 21 °F (2005)
Degree Days  
Heating Degree Days 28    
Moisture  
Dew Point 29 °F    
Average Humidity 73    
Maximum Humidity 89    
Minimum Humidity 57    
Precipitation  
Precipitation 0.00 in - - ()
Sea Level Pressure  
Sea Level Pressure 29.71 in    
Wind  
Wind Speed 7 mph (WNW)    
Max Wind Speed 15 mph    
Max Gust Speed 29 mph    
Averages and records for this station are not official NWS values.
T = Trace of Precipitation, MM = Missing Value Source: NWS Daily Summary

Daily Weather History Graph

Daily Weather History Graph

Search for Another Location

Airport or City:

Trip Planner

Search our weather history database for the weather conditions in past years. The results will help you decide how hot, cold, wet, or windy it might be!

Date:

Astronomy

Oct. 21, 2013 Rise Set
Actual Time 7:29 AM CDT 6:01 PM CDT
Civil Twilight 6:58 AM CDT 6:32 PM CDT
Nautical Twilight 6:22 AM CDT 7:08 PM CDT
Astronomical Twilight 5:46 AM CDT 7:44 PM CDT
Moon 7:43 PM CDT (10/21) 10:14 AM CDT (10/21)
Length of Visible Light 11h 34m
Length of Day
10h 31m
Waning Gibbous, 92% of the Moon is Illuminated
Oct 21
Waning Gibbous
Oct 26
Last Quarter
Nov 3
New
Nov 9
First Quarter
Nov 17
Full

Hourly Weather History & Observations

Time (CDT) Temp. Windchill Dew Point Humidity Pressure Visibility Wind Dir Wind Speed Gust Speed Precip Events Conditions
12:56 AM 39.0 °F - 34.0 °F 82% 29.70 in - Calm Calm - N/A   Unknown
1:56 AM 39.0 °F 36.8 °F 35.1 °F 86% 29.70 in - Variable 3.5 mph - N/A   Unknown
2:56 AM 37.9 °F 30.0 °F 30.9 °F 76% 29.69 in - NNW 12.7 mph 24.2 mph N/A   Unknown
3:56 AM 37.0 °F 30.4 °F 30.0 °F 76% 29.70 in - NNW 9.2 mph 23.0 mph N/A   Unknown
4:56 AM 37.0 °F 28.1 °F 27.0 °F 67% 29.70 in - NNW 15.0 mph 28.8 mph N/A   Unknown
5:56 AM 36.0 °F 29.0 °F 28.0 °F 73% 29.70 in - NW 9.2 mph 20.7 mph N/A   Unknown
6:56 AM 35.1 °F 25.5 °F 25.0 °F 67% 29.72 in - NW 15.0 mph 26.5 mph N/A   Unknown
7:56 AM 34.0 °F 26.6 °F 25.0 °F 70% 29.73 in - NW 9.2 mph 19.6 mph N/A   Unknown
8:56 AM 37.0 °F 34.5 °F 26.1 °F 65% 29.73 in - Variable 3.5 mph - N/A   Unknown
9:56 AM 37.9 °F 32.7 °F 28.0 °F 68% 29.74 in - Variable 6.9 mph 16.1 mph N/A   Unknown
10:56 AM 37.9 °F 34.4 °F 27.0 °F 65% 29.74 in - Variable 4.6 mph 19.6 mph N/A   Unknown
11:56 AM 39.0 °F 35.7 °F 26.1 °F 60% 29.73 in - Variable 4.6 mph 18.4 mph N/A   Unknown
12:56 PM 39.0 °F 31.8 °F 26.1 °F 60% 29.73 in - West 11.5 mph - N/A   Unknown
1:56 PM 41.0 °F 35.2 °F 27.0 °F 57% 29.70 in - West 9.2 mph - N/A   Unknown
2:56 PM 37.0 °F 30.4 °F 28.0 °F 70% 29.70 in - West 9.2 mph 17.3 mph N/A   Unknown
3:56 PM 37.9 °F 32.1 °F 30.0 °F 73% 29.69 in - West 8.1 mph 16.1 mph N/A   Unknown
4:56 PM 37.0 °F 31.0 °F 32.0 °F 82% 29.68 in - West 8.1 mph 16.1 mph N/A   Unknown
5:56 PM 36.0 °F 32.1 °F 33.1 °F 89% 29.68 in - West 4.6 mph - N/A   Unknown
6:56 PM 37.0 °F - 32.0 °F 82% 29.68 in - Calm Calm - N/A   Unknown
7:56 PM 37.9 °F 35.5 °F 32.0 °F 79% 29.69 in - WNW 3.5 mph - N/A   Unknown
8:56 PM 37.9 °F 32.1 °F 30.9 °F 76% 29.71 in - West 8.1 mph - N/A   Unknown
9:56 PM 37.9 °F 32.1 °F 30.9 °F 76% 29.75 in - NNW 8.1 mph - N/A   Unknown
10:56 PM 37.9 °F 32.1 °F 28.9 °F 70% 29.77 in - North 8.1 mph - N/A   Unknown
11:56 PM 37.0 °F 32.4 °F 28.9 °F 73% 29.79 in - Variable 5.8 mph - N/A   Unknown